Probability
0 0 0 0 0 0 0 0 0 0 0 0 0 0 0 0 0 0 0 0 0 0 0 0 0 0 0 0 0 0 0 0 0 0 0 0 0 0
0 0 0 0 0 0 0 0 0 0 0 0 0 0 0 0 0 0 0 0 0 0 0 0 0 0 0 0 0 0 0 0 0 0 0 0 0 0
0 0 0 0 0 0 0 0 0 0 0 0 0 0 0 0 0 0 0 0 0 0 0 0 0 0 0 0 0 0 0 0 0 0 0 0 0 0
0 0 0 0 0 0 0 0 0 0 0 0 0 0 0 0 0 0 0 0 0 0 0 0 0 0 0 0 0 0 0 0 0 0 0 0 0 0
0 0 0 0 0 0 0 0 0 0 0 0 0 0 0 0 0 0 0 0 0 0 0 0 0 0 0 0 0 0 0 0 0 0 0 0 0 0
0 0 0 0 0 0 0 0 0 0 0 0 0 0 0 0 0 0 0 0 0 0 0 0 0 0 0 0 0 0 0 0 0 0 0 0 0 0
0 0 0 0 0 0 0 0 0 0 0 0 0 0 0 0 0 0 0 0 0 0 0 0 0 0 0 0 0 0 0 0 0 0 0 0 0 0
0 0 0 0 0 0 0 0 0 0 0 0 0 0 0 0 0 0 0 0 0 0 0 0 0 0 0 0 0 0 0 0 0 0 0 0 0 0
0 0 0 0 0 0 0 0 0 0 0 0 0 0 0 0 0 0 0 0 0 0 0 0 0 0 0 0 0 0 0 0 0 0 0 0 0 0
0 0 0 0 0 0 0 0 0 0 0 0 0 0 0 0 0 0 0 0 0 0 0 0 0 0 0 0 0 0 0 0 0 0 0 0 0 0
0 0 0 0 0 0 0 0 0 0 0 0 0 0 0 0 0 0 0 0 0 0 0 0 0 0 0 0 0 0 0 0 0 0 0 0 0 0
0 0 0 0 0 0 0 0 0 0 0 0 0 0 0 0 0 0 0 0 0 0 0 0 0 0 0 0 0 0 0 0 0 0 0 0 0 0
0 0 0 0 0 0 0 0 0 0 0 0 0 0 0 0 0 0 0 0 0 0 0 0 0 0 0 0 0 0 0 0 0 0 0 0 0 0
0 0 0 0 0 0 0 0 0 0 0 0 0 0 0 0 0 0 0 0 0 0 0 0 0 0 0 0 0 0 0 0 0 0 0 0 0 0
0 0 0 0 0 0 0 0 0 0 0 0 0 0 0 0 0 0 0 0 0 0 0 0 0 0 0 0 0 0 0 0 0 0 0 0 0 0
0 0 0 0 0 0 0 0 0 0 0 0 0 0 0 0 0 0 0 0 0 0 0 0 0 0 0 0 0 0 0 0 0 0 0 0 0 0
0 0 0 0 0 0 0 0 0 0 0 0 0 0 0 0 0 0 0 0 0 0 0 0 0 0 0 0 0 0 0 0 0 0 0 0 0 0
0 0 0 0 0 0 0 0 0 0 0 0 0 0 0 0 0 0 0 0 0 0 0 0 0 0 0 0 0 0 0 0 0 0 0 0 0 0
0 0 0 0 0 0 0 0 0 0 0 0 0 0 0 0 0 0 0 0 0 0 0 0 0 0 0 0 0 0 0 0 0 0 0 0 0 0
0 0 0 0 0 0 0 0 0 0 0 0 0 0 0 0 0 0 0 0 0 0 0 0 0 0 0 0 0 0 0 0 0 0 0 0 0 0
0 0 0 0 0 0 0 0 0 0 0 0 0 0 0 0 0 0 0 0 0 0 0 0 0 0 0 0 0 0 0 0 0 0 0 0 0 0
0 0 0 0 0 0 0 0 0 0 0 0 0 0 0 0 0 0 0 0 0 0 0 0 0 0 0 0 0 0 0 0 0 0 0 0 0 0
0 0 0 0 0 0 0 0 0 0 0 0 0 0 0 0 0 0 0 0 0 0 0 0 0 0 0 0 0 0 0 0 0 0 0 0 0 0
Wind_Speed
3 3 2 2 2 2 2 3 3 2 3 3 1 2 1 1 2 2 2 2 1 2 3 3 3 3 4 4 4 4 4 4 5 6 6 7 7 8
3 3 2 2 2 2 2 2 2 3 2 2 2 1 1 1 2 1 1 2 2 3 3 4 4 4 3 3 4 4 5 5 5 6 7 8 8 8
4 4 4 3 2 2 2 2 2 2 3 1 1 1 1 1 1 1 1 1 1 3 4 3 4 4 4 3 4 4 5 5 6 7 8 8 9 9
5 4 4 3 3 3 3 3 3 3 3 3 2 2 2 2 1 1 1 1 1 3 4 4 4 4 4 4 4 4 4 5 6 7 8 8 9 9
5 5 5 4 4 3 3 3 3 2 2 3 2 2 1 1 1 1 1 1 1 2 4 4 4 5 5 5 4 4 4 5 6 7 7 8 9 10
4 5 5 5 5 5 4 4 3 3 3 3 2 2 1 1 1 1 1 1 2 2 3 3 4 5 5 5 5 5 5 5 6 7 7 8 9 10
4 4 4 5 5 5 4 4 4 3 3 3 3 2 2 2 2 2 2 1 2 1 1 2 2 2 3 5 5 5 5 6 6 6 7 8 8 9
4 4 3 4 5 5 5 5 6 5 5 4 3 4 3 3 2 2 1 1 2 1 1 2 1 2 2 2 4 6 6 6 6 6 7 8 9 9
4 4 3 2 3 3 3 3 3 4 5 4 4 4 4 3 3 3 2 2 2 2 1 3 2 3 2 3 5 5 5 5 6 7 7 8 9 9
4 4 4 3 3 3 3 3 2 1 2 2 3 3 2 2 3 3 3 1 1 1 0 2 2 2 2 2 4 4 5 6 7 7 8 8 9 10
2 3 4 4 5 4 4 3 2 1 1 2 2 2 2 3 2 2 1 1 2 2 1 1 2 2 2 2 3 4 5 7 7 8 8 9 9 9
2 2 4 4 5 5 4 4 4 2 2 2 2 2 2 2 2 2 2 2 1 2 1 1 1 1 3 2 2 2 3 6 8 9 9 9 10 5
2 2 2 4 4 4 3 4 4 3 2 2 2 1 1 1 1 1 1 2 2 2 2 1 1 1 2 3 3 2 2 3 3 4 6 9 10 8
3 2 2 4 3 3 2 3 4 3 2 2 1 1 1 1 1 1 1 1 1 2 2 2 1 2 2 3 4 3 3 3 3 3 3 7 9 11
2 3 3 4 3 2 3 4 3 2 2 2 2 1 1 1 1 0 0 0 1 1 1 1 2 2 2 3 4 3 3 3 2 2 3 4 4 4
1 2 3 2 1 2 2 2 1 2 2 2 2 1 1 1 1 1 1 1 1 2 2 1 2 3 3 4 4 5 3 3 3 3 4 5 4 4
1 1 1 1 1 1 1 1 1 1 1 1 2 2 1 1 1 1 1 1 1 2 2 2 2 2 4 4 4 4 4 4 4 4 4 5 5 5
1 1 1 1 2 2 2 1 1 2 2 2 2 2 2 2 1 1 1 1 2 2 2 2 2 2 2 3 5 4 3 4 4 4 4 5 7 5
1 1 1 2 2 2 2 2 2 2 2 2 2 2 2 2 2 2 2 2 2 3 3 2 1 1 3 5 4 4 3 4 4 4 4 5 7 7
1 1 1 1 1 2 2 2 2 2 2 2 2 2 2 2 2 2 3 3 3 3 3 2 2 3 4 5 4 5 6 5 4 5 5 5 6 9
1 1 1 1 1 2 2 2 2 2 2 2 2 2 2 2 3 3 3 4 4 3 4 4 5 5 2 2 4 5 4 6 7 6 5 6 6 5
1 1 1 1 2 2 2 2 2 2 2 2 2 2 2 2 3 4 3 4 4 4 5 4 2 2 2 4 6 6 6 5 6 10 10 9 6 6
1 1 1 2 2 2 2 2 3 2 2 2 2 3 3 3 3 3 4 4 4 4 4 3 2 2 3 4 5 5 6 6 5 5 5 8 11 13
Wind_Direction
189 189 189 195 186 179 164 161 167 198 230 221 205 202 182 162 191 170 174 206 235 274 285 294 291 288 292 302 311 309 308 313 318 319 319 318 314 312
183 184 195 191 181 178 178 184 185 181 214 211 199 180 169 194 196 176 193 221 244 260 273 287 297 292 289 295 301 301 303 305 307 309 309 310 307 308
188 190 199 187 182 187 184 187 202 183 208 242 182 148 159 190 212 202 198 212 246 259 259 273 289 291 287 287 290 293 299 304 304 305 308 310 309 308
190 189 196 189 193 195 193 202 207 197 188 216 209 180 196 197 197 213 250 248 243 265 261 269 277 279 281 285 290 292 295 300 303 306 307 307 308 306
188 189 191 188 198 200 199 202 202 200 188 194 206 196 185 181 195 263 270 270 265 265 260 263 271 276 278 279 281 281 285 293 298 303 307 309 308 304
189 191 191 193 198 199 201 201 190 185 179 181 194 189 193 183 167 224 268 263 267 273 264 265 272 276 273 272 275 278 282 289 296 300 305 308 308 306
191 192 194 198 201 200 202 195 185 183 178 181 192 193 199 189 205 208 238 259 273 251 259 265 265 266 264 268 269 271 275 282 292 298 303 306 309 309
195 195 195 194 193 198 203 198 191 187 187 189 199 200 209 209 199 201 206 246 273 261 253 272 238 254 258 249 266 272 275 280 287 294 300 304 305 307
194 189 190 192 183 179 186 184 187 196 196 193 198 208 206 207 194 204 216 229 247 246 267 273 258 259 262 265 269 276 283 292 299 301 304 306 307 306
189 187 184 182 175 165 158 158 168 197 209 203 199 206 202 190 196 203 200 209 296 283 247 269 279 274 283 272 264 273 292 300 302 304 306 307 306 306
185 184 181 180 177 168 163 166 164 166 81 125 137 144 146 150 156 142 156 187 265 270 245 250 281 297 289 268 265 281 294 297 299 304 306 307 307 310
168 176 184 186 181 176 177 175 186 193 154 124 111 102 124 137 148 179 186 201 244 258 235 229 281 331 305 289 282 284 285 291 298 301 303 306 309 311
178 178 176 173 176 180 193 190 189 178 161 152 146 134 126 144 166 174 200 210 224 246 234 199 249 270 263 290 291 272 269 283 288 290 298 305 307 308
181 177 166 165 169 175 189 171 161 155 151 150 153 167 182 201 203 191 192 216 245 243 227 198 218 233 256 277 282 292 288 276 275 281 285 299 301 303
154 157 159 156 155 158 158 163 160 159 161 170 190 207 205 195 177 164 134 2 321 309 260 224 221 236 234 248 269 280 292 281 267 280 287 286 283 290
114 129 130 120 111 122 141 154 170 177 181 185 180 188 181 174 194 214 239 260 287 300 303 265 240 231 241 250 252 267 269 273 286 290 292 287 283 279
148 129 134 138 145 151 140 139 154 169 185 187 178 182 194 201 226 235 231 247 250 269 291 300 290 265 247 242 253 257 264 272 275 285 292 290 282 277
162 169 184 184 184 188 190 192 188 187 189 190 193 200 207 210 219 232 236 234 248 258 262 278 311 324 309 278 236 249 257 267 282 284 281 284 288 284
187 187 196 201 198 197 202 205 212 204 192 193 199 205 210 213 219 229 235 245 250 253 256 251 247 249 280 283 277 235 253 275 281 281 272 271 280 286
180 194 207 207 203 204 207 207 204 201 203 203 205 210 213 218 225 235 237 242 249 256 260 251 236 226 233 252 269 276 261 259 262 273 282 281 276 281
195 205 214 207 206 208 207 207 209 212 213 213 211 212 216 222 231 236 241 253 253 248 249 251 249 256 247 254 271 274 271 269 275 276 281 288 293 289
228 222 225 219 209 207 210 209 211 214 213 217 217 214 218 227 235 238 239 240 243 246 251 256 255 244 231 243 262 274 285 292 288 289 281 272 275 276
258 245 234 226 222 215 210 210 213 217 221 222 221 221 222 230 238 242 245 244 246 249 255 258 254 245 245 247 259 272 280 287 293 296 291 288 287 287